Alexander City, AL

3:24 PM CDT on May 22, 2018 (GMT -0500)
Russell

Weather History for KALX - June, 2013

Change the Weather History Date:

Saturday, June 29, 2013

  Actual Average (KAUO) Record (KAUO)
Temperature  
Mean Temperature 78 °F -  
Max Temperature 85 °F 89 °F 100 °F (2012)
Min Temperature 70 °F 66 °F 50 °F (1968)
Cooling Degree Days 12    
Growing Degree Days 28 (Base 50)    
Moisture  
Dew Point 72 °F    
Average Humidity 82    
Maximum Humidity 90    
Minimum Humidity 64    
Precipitation  
Precipitation 0.04 in - - ()
Sea Level Pressure  
Sea Level Pressure 29.75 in    
Wind  
Wind Speed 3 mph (SW)    
Max Wind Speed 10 mph    
Max Gust Speed -    
Visibility 8 miles    
Events Rain , Thunderstorm    
Averages and records for this station are not official NWS values.
T = Trace of Precipitation, MM = Missing Value Source: NWS Daily Summary

Daily Weather History Graph

Daily Weather History Graph

Search for Another Location

Airport or City:

Astronomy

Jun. 29, 2013 Rise Set
Actual Time 5:38 AM CDT 7:56 PM CDT
Civil Twilight 5:09 AM CDT 8:24 PM CDT
Nautical Twilight 4:34 AM CDT 8:59 PM CDT
Astronomical Twilight 3:56 AM CDT 9:38 PM CDT
Moon No Moon Rise 12:25 PM CDT (6/29)
Length of Visible Light 15h 15m
Length of Day
14h 17m
Waning Gibbous, 55% of the Moon is Illuminated
Jun 29
Waning Gibbous
Jun 29
Last Quarter
Jul 8
New
Jul 15
First Quarter
Jul 22
Full

Hourly Weather History & Observations

Time (CDT) Temp. Heat Index Dew Point Humidity Pressure Visibility Wind Dir Wind Speed Gust Speed Precip Events Conditions
12:15 AM 75.6 °F - 72.5 °F 90% 29.78 in 10.0 mi Calm Calm - N/A   Overcast
12:35 AM 75.6 °F - 72.5 °F 90% 29.77 in 7.0 mi Calm Calm - N/A   Overcast
12:55 AM 75.6 °F - 72.5 °F 90% 29.77 in 10.0 mi SSE 3.5 mph - N/A   Overcast
1:15 AM 75.6 °F - 72.5 °F 90% 29.77 in 7.0 mi SW 4.6 mph - N/A   Overcast
1:35 AM 75.6 °F - 72.5 °F 90% 29.76 in 5.0 mi SW 4.6 mph - N/A   Overcast
1:55 AM 75.6 °F - 72.5 °F 90% 29.76 in 7.0 mi SW 4.6 mph - N/A   Overcast
2:15 AM 75.6 °F - 72.5 °F 90% 29.76 in 7.0 mi SW 4.6 mph - N/A Thunderstorm Overcast
2:35 AM 75.6 °F - 72.5 °F 90% 29.76 in 7.0 mi SSW 5.8 mph - N/A   Overcast
2:55 AM 75.6 °F - 72.5 °F 90% 29.76 in 7.0 mi SSW 6.9 mph - N/A   Overcast
3:15 AM 75.6 °F - 72.1 °F 89% 29.75 in 10.0 mi SW 5.8 mph - N/A   Overcast
3:35 AM 75.6 °F - 72.1 °F 89% 29.75 in 10.0 mi SW 4.6 mph - N/A   Overcast
3:55 AM 75.6 °F - 72.1 °F 89% 29.75 in 10.0 mi Calm Calm - N/A   Overcast
4:15 AM 75.6 °F - 72.1 °F 89% 29.75 in 10.0 mi SW 4.6 mph - N/A   Overcast
4:35 AM 75.6 °F - 72.1 °F 89% 29.76 in 10.0 mi WSW 4.6 mph - N/A   Overcast
4:55 AM 75.6 °F - 72.1 °F 89% 29.76 in 10.0 mi SW 4.6 mph - N/A   Overcast
5:15 AM 75.6 °F - 72.1 °F 89% 29.76 in 10.0 mi SW 5.8 mph - N/A   Overcast
5:35 AM 75.6 °F - 72.1 °F 89% 29.77 in 10.0 mi Calm Calm - N/A   Overcast
5:55 AM 75.6 °F - 72.1 °F 89% 29.76 in 7.0 mi Calm Calm - N/A   Overcast
6:15 AM 75.6 °F - 72.1 °F 89% 29.76 in 7.0 mi Calm Calm - N/A   Overcast
6:35 AM 75.6 °F - 72.1 °F 89% 29.76 in 4.0 mi South 3.5 mph - N/A   Overcast
6:55 AM 75.6 °F - 72.1 °F 89% 29.77 in 3.0 mi West 4.6 mph - N/A   Overcast
7:15 AM 75.6 °F - 72.1 °F 89% 29.77 in 1.5 mi Calm Calm - N/A   Overcast
7:35 AM 75.6 °F - 72.5 °F 90% 29.77 in 1.8 mi SW 3.5 mph - N/A   Overcast
7:55 AM 75.6 °F - 72.5 °F 90% 29.78 in 4.0 mi SW 5.8 mph - N/A   Overcast
8:15 AM 75.6 °F - 72.0 °F 89% 29.78 in 5.0 mi SSW 5.8 mph - N/A   Overcast
8:35 AM 76.3 °F - 71.8 °F 86% 29.78 in 7.0 mi West 5.8 mph - N/A   Overcast
8:55 AM 78.1 °F - 73.4 °F 85% 29.78 in 7.0 mi WSW 3.5 mph - N/A   Overcast
9:15 AM 78.1 °F - 73.4 °F 85% 29.79 in 7.0 mi WNW 4.6 mph - N/A   Overcast
9:35 AM 78.1 °F - 72.5 °F 83% 29.79 in 7.0 mi WSW 5.8 mph - N/A   Overcast
9:55 AM 78.1 °F - 71.6 °F 80% 29.79 in 7.0 mi SW 5.8 mph - N/A   Overcast
10:15 AM 78.1 °F - 72.0 °F 81% 29.79 in 7.0 mi NNW 6.9 mph - N/A   Overcast
10:35 AM 78.1 °F - 71.8 °F 81% 29.79 in 7.0 mi SW 3.5 mph - N/A   Overcast
10:55 AM 79.0 °F - 72.5 °F 80% 29.78 in 10.0 mi SW 5.8 mph - N/A   Overcast
11:15 AM 80.6 °F 85.2 °F 73.2 °F 78% 29.78 in 10.0 mi SSW 5.8 mph - N/A   Overcast
11:35 AM 80.6 °F 85.0 °F 72.7 °F 77% 29.78 in 10.0 mi SSW 4.6 mph - N/A   Overcast
11:55 AM 81.0 °F 85.2 °F 72.1 °F 74% 29.77 in 10.0 mi SW 5.8 mph - N/A   Mostly Cloudy
12:15 PM 82.9 °F 88.8 °F 73.0 °F 72% 29.77 in 10.0 mi WSW 6.9 mph - N/A   Mostly Cloudy
12:35 PM 83.3 °F 89.3 °F 73.0 °F 71% 29.77 in 10.0 mi SW 5.8 mph - N/A   Scattered Clouds
12:55 PM 83.5 °F 89.1 °F 72.5 °F 69% 29.76 in 10.0 mi SW 5.8 mph - N/A   Scattered Clouds
1:15 PM 85.1 °F 92.2 °F 73.4 °F 68% 29.76 in 10.0 mi SSW 5.8 mph - N/A   Scattered Clouds
1:35 PM 85.3 °F 91.8 °F 72.9 °F 66% 29.75 in 10.0 mi SSW 3.5 mph - N/A   Scattered Clouds
1:55 PM 84.6 °F 91.0 °F 73.0 °F 68% 29.74 in 10.0 mi South 6.9 mph - N/A   Scattered Clouds
2:15 PM 84.6 °F 90.7 °F 72.7 °F 67% 29.73 in 10.0 mi SSW 4.6 mph - N/A   Mostly Cloudy
2:35 PM 81.7 °F 85.1 °F 69.3 °F 66% 29.74 in 3.0 mi Calm Calm - 0.04 in Rain Rain
2:55 PM 84.6 °F 90.7 °F 72.3 °F 67% 29.73 in 10.0 mi SSE 4.6 mph - 0.04 in   Scattered Clouds
3:15 PM 85.3 °F 93.0 °F 73.9 °F 69% 29.72 in 10.0 mi South 10.4 mph - N/A   Clear
3:35 PM 83.3 °F 88.2 °F 71.2 °F 67% 29.71 in 10.0 mi SSE 5.8 mph - N/A   Clear
3:55 PM 82.2 °F 85.5 °F 69.1 °F 64% 29.72 in 10.0 mi SSW 5.8 mph - N/A   Scattered Clouds
4:15 PM 81.7 °F 86.0 °F 71.4 °F 71% 29.72 in 10.0 mi WSW 3.5 mph - N/A Thunderstorm Scattered Clouds
4:35 PM 80.6 °F 84.2 °F 70.9 °F 72% 29.72 in 10.0 mi Calm Calm - N/A   Scattered Clouds
4:55 PM 80.6 °F 84.6 °F 71.8 °F 74% 29.73 in 10.0 mi Calm Calm - N/A Thunderstorm Clear
5:15 PM 80.6 °F 84.7 °F 72.0 °F 75% 29.73 in 10.0 mi SSW 5.8 mph - N/A Thunderstorm Clear
5:35 PM 78.3 °F - 69.8 °F 75% 29.73 in 10.0 mi SE 4.6 mph - N/A   Clear
5:55 PM 78.1 °F - 69.6 °F 75% 29.73 in 10.0 mi SW 3.5 mph - N/A   Clear
6:15 PM 78.3 °F - 69.8 °F 75% 29.72 in 10.0 mi SSW 4.6 mph - N/A   Clear
6:35 PM 78.1 °F - 69.8 °F 76% 29.72 in 10.0 mi WSW 3.5 mph - N/A   Clear
6:55 PM 78.1 °F - 70.5 °F 77% 29.71 in 10.0 mi Calm Calm - N/A   Clear
7:15 PM 78.1 °F - 69.8 °F 76% 29.71 in 10.0 mi Calm Calm - N/A   Clear
7:35 PM 78.1 °F - 70.0 °F 76% 29.72 in 10.0 mi Calm Calm - N/A   Clear
7:55 PM 78.1 °F - 71.8 °F 81% 29.74 in 10.0 mi Calm Calm - N/A   Scattered Clouds
8:15 PM 78.1 °F - 72.5 °F 83% 29.75 in 10.0 mi Calm Calm - N/A   Mostly Cloudy
8:35 PM 75.6 °F - 70.7 °F 85% 29.75 in 10.0 mi Calm Calm - N/A   Scattered Clouds
8:55 PM 75.6 °F - 71.2 °F 86% 29.74 in 10.0 mi Calm Calm - N/A   Scattered Clouds
9:15 PM 75.6 °F - 71.6 °F 87% 29.74 in 10.0 mi Calm Calm - N/A   Scattered Clouds
9:35 PM 75.6 °F - 71.8 °F 88% 29.75 in 10.0 mi Calm Calm - N/A   Clear
9:55 PM 75.6 °F - 72.1 °F 89% 29.76 in 10.0 mi Calm Calm - N/A   Clear
10:15 PM 75.6 °F - 72.1 °F 89% 29.76 in 10.0 mi Calm Calm - N/A   Clear
10:35 PM 75.6 °F - 72.1 °F 89% 29.76 in 7.0 mi Calm Calm - N/A   Clear
10:55 PM 75.6 °F - 72.1 °F 89% 29.76 in 7.0 mi Calm Calm - N/A   Clear
11:15 PM 73.0 °F - 69.8 °F 90% 29.76 in 10.0 mi Calm Calm - N/A   Clear
11:35 PM 70.7 °F - 67.3 °F 89% 29.76 in 7.0 mi Calm Calm - N/A   Clear
11:55 PM 70.9 °F - 67.5 °F 89% 29.76 in 10.0 mi Calm Calm - N/A   Clear